DELTA 1 DEB, 10206

Orbit data source: Space-Track

DELTA 1 DEB, 10206 is space debris in LEO originally from a launch on Thu, 14 Jul 1977 UTC launched from the Air Force Eastern Test Range (AFETR). Debris objects in space refer to the collection of defunct objects orbiting the Earth. Examples of debris include non-operational satellites, rocket bodies, and fragments generated from explosions, collisions, or faulty payload assembly.

Loading next visibility...
Identifier
10206, 1977-065AK
Orbit
LEO
Country
Flag of USUS
Related business
Manufacturer
Unknown
Mission
Spacecraft
Bus & Motor
Unknown
Mass
Unknown
Launch date (UTC)
1977-07-14 (48 years ago)
Launch vehicle
Unknown
Launch site
Air Force Eastern Test Range (AFETR)
Object type
Payload
Rocket body
Debris
Shape & HBR
Unknown shape, 0.1 m
Radar Cross Section
Small (<0.1 m²)

Expand to show TLE details & history
Last TLE update: 15 hours ago

TLE from 15 hours ago
0 DELTA 1 DEB
1 10206U 77065AK  25305.34435736  .00001310  00000-0  96142-3 0  9994
2 10206  29.2066 323.0926 0530734 138.9167 225.2623 13.41052214284030
Epoch: 2025-11-01T08:15Z
TLE epoch observation values (Epoch: 2025-11-01T08:15:52.475Z)
Latitude
Longitude
158.24817°
Altitude
1,393.369 km
Speed
7.025 km/s
True Right ascension
21h 32m 22s
True Declination
0° 00' 00"
Sunlit
Object was in daylight at epoch
Visualization orbit readout
Latitude
Unknown
Longitude
Unknown
Altitude
Unknown
Speed
Unknown
Apparent Right ascension
Unknown
Apparent Declination
Unknown
Sunlit
N/A
Visualization observer readout
Local Sidereal Time
19:05:14
Azimuth
Unknown
Elevation
Unknown
Doppler factor
Unknown
Orbital elements
Apogee altitude
1,506.544 km
Perigee altitude
711.791 km
Semi-major axis
7,487.304 km
Eccentricity
0.05307
Inclination
29.2066°
RAAN
323.0926°
Arg. of periapsis
138.9167°
True anomaly
221.13879°
Mean anomaly
225.2623°
Eccentric anomaly
223.18139°
Mean motion
3.35008 °/min
Orbital period
107.46 mins
BSTAR
0.00096142
Loading maneuver chart data...
Computing Atmospheric mass density...

Documentation

Showing up to 5 results
|